Погода в Балхаше

Погода в Балхаше : погода сейчас, прогноз погоды и архив. Всё, что Вы хотите узнать о погоде в Балхаше!

Хотите узнать прогноз погоды в Балхаше? Тогда Вам сюда: Погода в Балхаше

Поиск расширенной информации на нашем сайте:

Другие новости

Новости СМИ2

Главная страница сайта

Новости сайта

03.07.2017

Напоминаем, что на нашем специализированном сайте Метеоцентр.Азия вы можете получить высокодетализированные автоматические прогнозы погоды по пунктам России, СНГ и мира в авиационном формате (включающие направление и скорость ветра, видимость, явления погоды, количество и форму облачности, нижнюю и верхнюю границу облачности).


Погода в Балхаше - сегодня

Время (UTC), дата Ветер
(°,м/с) 
Видим.   Явления Облачность Т
(°С)
Тd
(°С)
f(%) Тe
(°С)
Pmin
(гПа)
dP
(гПа)
Po
(мм)
O2
(г/м3)
Тmin Tmax R s Состояние
почвы
18 17.08.18 040 (СВ) 10 км    ясно 
+21.9 +6.7 37 +22  1008.7  727  270    +29.9       
21 17.08.18 040 (СВ) 10 км    ясно 
+20.8 +9.8 49 +22  1008.3  -0.5  726  270           
00 18.08.18 040 (СВ) 10 км    ясно 
+18.6 +10.8 60 +22  1008.7  0.1  726  272           
03 18.08.18 070 (В) 20000 м    3/0 верхняя 
[Ci sp]
+24 +9.5 40 +25  1007.9  -0.1  726  267           
06 18.08.18 250 (З) 20000 м    3/1 1000 м верхняя 
[Cu hum|Ci sp]
+25.4 +14.9 52 +35  1006.3  -1.3  725  264  +18.4         
09 18.08.18 240 (ЮЗ) 20000 м    8/0 средняя, верхняя 
[Ac As|Ci sp]
+27.8 +14.6 44 +37  1004.2  -1.7  724  262           
12 18.08.18 250 (З) 20000 м    8/0 средняя, верхняя 
[Ac trans|Ci sp]
+28.3 +13.2 39 +35  1003.1  -1  723  262           
15 18.08.18 340 (С) 10 км    8/3 1000 м верхняя 
[Sc|Ci sp]
+26.6 +6.8 28 +27  1003.3  -0.1  723  264    +29.7       
18 18.08.18 040 (СВ) 10 км    6/3 1000 м верхняя 
[Sc|Ci sp]
+23 +7.6 37 +23  1003.2  -0.5  723  267    +29.7       
21 18.08.18 060 (СВ) 10 км    8/0 верхняя 
[Ci sp]
+22.7 +8.2 39 +23  1003.7  0.4  723  268           
00 19.08.18 050 (СВ) 10 км    4/0 средняя, верхняя 
[Ac trans|Ci sp]
+19.4 +8.4 49 +20  1004.5  0.3  723  271           
06 19.08.18 170 (Ю) 20000 м    ясно 
+24.5 +18.3 68 +41  1003.9  724  263  +19.1         
09 19.08.18 200 (Ю) 20000 м    1/1 1000 м 
[Cu med, cong]
+26.8 +18.1 59 +43  1002.6  -1  723  261           
12 19.08.18 200 (Ю) 20000 м    ясно 
+26.1 +19 65 +44  1001.9  -0.7  722  261           
15 19.08.18 140 (ЮВ) 10 км    5/0 верхняя 
[Ci sp]
+24.6 +18.7 70 +42  1002.2  0.1  722  263    +27.6       
18 19.08.18 100 (В) 10 км    3/0 верхняя 
[Ci fib]
+23.9 +14.8 57 +33  1002.2  -0.2  722  265    +27.6       
21 19.08.18 090 (В) 10 км    ясно 
+21.7 +15.8 69 +33  1001.3  -1.1  722  266           
00 20.08.18 060 (СВ) 10 км    3/0 верхняя 
[Ci sp]
+18.5 +14.8 79 +28  1001.9  0.1  722  269           
03 20.08.18 140 (ЮВ) 20000 м    8/0 верхняя 
[Ci fib]
+23.8 +15.5 60 +34  1001.4  0.2  722  264           
06 20.08.18 200 (Ю) 20000 м    6/0 средняя, верхняя 
[Ac und|Ci sp]
+25.3 +21.1 78 +48  1001.8  0.7  722  261  +18         
09 20.08.18 220 (ЮЗ) 10 км    8/0 средняя, верхняя 
[Ac As|Cc]
+27.2 +18.4 59 +44  1001  -0.6  722  260           
12 20.08.18 180 (Ю) 10 км    10/0 средняя, верхняя 
[Ac lent|Ci sp]
+26 +19.3 67 +45  1000  -1.1  721  261           
15 20.08.18 340 (С) 10 км    10/10 1000 м 
[Sc]
+26.7 +9.2 33 +28  1000.7  0.6  721  263    +31.7       
18 20.08.18 200 (Ю) 10 км  в посл. час ливневой дождь  10/6 1000 м 
[Sc]
+23.1 +16.3 66 +35  1001.1  0.1  722  264    +31.7       
21 20.08.18 290 (З) 7{20}  10 км    ясно 
+20.5 +12.5 60 +26  1004.3  2.6  723  269           
Время (UTC), дата Ветер
(°,м/с) 
Видим.   Явления Облачность Т
(°С)
Тd
(°С)
f(%) Тe
(°С)
Pmin
(гПа)
dP
(гПа)
Po
(мм)
O2
(г/м3)
Тmin Tmax R s Состояние
почвы

Для получения пояснительной информации подведите курсор к названию столбца.

ПОГОДА в Балхаше - архив

Всё, что Вы хотите узнать о погоде в Балхаше - удобно и подробно!

Выберите нужную дату (начиная с 1 января 2015* года) и нажмите кнопку "Найти".
Будут отображены архивные сводки погоды по пункту Балхаш, начиная с указанной даты.


Отображать данные в формате CSV (для использования в таблицах Excel)


Внимание! Наш архив погоды предназначен исключительно для личного некоммерческого использования в познавательных целях. Если Вам необходимы официальные справки о состоянии погоды (для производственных, юридических, коммерческих и т.п. целей), обращайтесь в органы Росгидромета.

*Примечание: данная дата относится к архиву по метеостанциям СССР (Россия, СНГ, Балтия).
Архив по метеостанциям Зарубежной Европы и Азии (кроме Китая) хранится 10 дней, по другим регионам земного шара (Китай, Африка, Америка, Австралия, Океания) - 1 день.

Балхаш - район местоположения метеостанции


Название, широта, долгота, высота метеостанции:
Балхаш 46.8°ш. 75.1°д. 350 м над ур. моря [Казахстан]

Дополнительная информация

В oтличие oт бoльшинства пoгoдных сайтoв мы публикуем пoдрoбную метеoинфoрмацию в детальнoм прoфессиoнальнoм фoрмате.

Характеристики температуры и влажнoсти вoздуха измеряются на высoте 2 м в тени вдали oт зданий и деревьев.
Скoрoсть ветра измеряется на высoте 10 м (на урoвне рoста челoвека скoрoсть ветра ниже в 1.5-2 раза). Если метеoстанция нахoдится в гoрoде или в лесу, тo скoрoсть ветра занижена на 2-4 м/с пo сравнению с oткрытым местoм. Скoрoсть ветра над акватoриями крупных рек и oзёр, а также на вершинах хoлмoв на 2-5 м/с выше, чем в oбычных услoвиях.
Атмoсфернoе давление в разных тoчках местнoсти мoжет значительнo oтличаться oт давления на метеoстанции, в зависимoсти oт услoвий рельефа (при пoдъёме на 10 м давление пoнижается примернo на 1 мм рт.ст.).